Gunnison, CO

12:32 AM MDT on April 30, 2017 (GMT -0600)
Gunnison County

Weather History for KGUC - October, 2010

Change the Weather History Date:

Thursday, October 21, 2010

  Actual Average Record
Temperature  
Mean Temperature 42 °F -  
Max Temperature 53 °F 53 °F 73 °F (2003)
Min Temperature 30 °F 21 °F 16 °F (2016)
Degree Days  
Heating Degree Days 24    
Moisture  
Dew Point 28 °F    
Average Humidity 62    
Maximum Humidity 81    
Minimum Humidity 47    
Precipitation  
Precipitation 0.00 in - - ()
Sea Level Pressure  
Sea Level Pressure 30.17 in    
Wind  
Wind Speed 5 mph (NNE)    
Max Wind Speed 13 mph    
Max Gust Speed 18 mph    
Visibility 10 miles    
Events      
Averages and records for this station are not official NWS values.
T = Trace of Precipitation, MM = Missing Value Source: NWS Daily Summary

Daily Weather History Graph

Daily Weather History Graph

Search for Another Location

Airport or City:

Trip Planner

Search our weather history database for the weather conditions in past years. The results will help you decide how hot, cold, wet, or windy it might be!

Date:

Astronomy

Oct. 21, 2010 Rise Set
Actual Time 7:22 AM MDT 6:21 PM MDT
Civil Twilight 6:55 AM MDT 6:48 PM MDT
Nautical Twilight 6:24 AM MDT 7:19 PM MDT
Astronomical Twilight 5:54 AM MDT 7:49 PM MDT
Moon 5:23 PM MDT (10/21) 6:05 AM MDT (10/21)
Length of Visible Light 11h 52m
Length of Day
10h 58m
Waxing Gibbous, 98% of the Moon is Illuminated
Oct 21
Waxing Gibbous
Oct 22
Full
Oct 30
Last Quarter
Nov 5
New
Nov 13
First Quarter

Hourly Weather History & Observations

Time (MDT) Temp. Windchill Dew Point Humidity Pressure Visibility Wind Dir Wind Speed Gust Speed Precip Events Conditions
12:15 AM 35.6 °F 28.6 °F 21.2 °F 56% 30.25 in 10.0 mi North 9.2 mph - N/A   Clear
12:35 AM 33.8 °F 28.6 °F 23.0 °F 65% 30.25 in 10.0 mi East 5.8 mph - N/A   Clear
12:55 AM 35.6 °F - 23.0 °F 60% 30.25 in 10.0 mi Calm Calm - N/A   Clear
1:15 AM 37.4 °F 31.4 °F 23.0 °F 56% 30.25 in 10.0 mi North 8.1 mph - N/A   Clear
1:35 AM 35.6 °F 30.7 °F 21.2 °F 56% 30.25 in 10.0 mi NE 5.8 mph - N/A   Clear
1:55 AM 35.6 °F 29.9 °F 21.2 °F 56% 30.25 in 10.0 mi NNE 6.9 mph - N/A   Clear
2:15 AM 35.6 °F 32.8 °F 23.0 °F 60% 30.24 in 10.0 mi NE 3.5 mph - N/A   Partly Cloudy
2:35 AM 33.8 °F 30.8 °F 21.2 °F 60% 30.25 in 10.0 mi SSE 3.5 mph - N/A   Clear
2:55 AM 35.6 °F 31.7 °F 23.0 °F 60% 30.23 in 10.0 mi NNE 4.6 mph - N/A   Clear
3:15 AM 33.8 °F 29.6 °F 21.2 °F 60% 30.22 in 10.0 mi ESE 4.6 mph - N/A   Clear
3:35 AM 33.8 °F 30.8 °F 23.0 °F 65% 30.22 in 10.0 mi SSW 3.5 mph - N/A   Clear
3:55 AM 32.0 °F 26.4 °F 23.0 °F 69% 30.23 in 10.0 mi West 5.8 mph - N/A   Clear
4:15 AM 33.8 °F - 21.2 °F 60% 30.22 in 10.0 mi Calm Calm - N/A   Clear
4:35 AM 30.2 °F 24.3 °F 23.0 °F 75% 30.22 in 10.0 mi SSE 5.8 mph - N/A   Clear
4:55 AM 30.2 °F - 23.0 °F 75% 30.23 in 10.0 mi Calm Calm - N/A   Clear
5:15 AM 32.0 °F 28.7 °F 24.8 °F 75% 30.23 in 10.0 mi South 3.5 mph - N/A   Scattered Clouds
5:35 AM 33.8 °F - 23.0 °F 65% 30.23 in 10.0 mi Calm Calm - N/A   Mostly Cloudy
5:55 AM 33.8 °F - 24.8 °F 70% 30.23 in 10.0 mi Calm Calm - N/A   Overcast
6:15 AM 33.8 °F 28.6 °F 23.0 °F 65% 30.23 in 10.0 mi NNE 5.8 mph - N/A   Overcast
6:35 AM 33.8 °F 28.6 °F 23.0 °F 65% 30.23 in 10.0 mi North 5.8 mph - N/A   Mostly Cloudy
6:55 AM 33.8 °F 30.8 °F 23.0 °F 65% 30.24 in 10.0 mi North 3.5 mph - N/A   Overcast
7:15 AM 33.8 °F - 23.0 °F 65% 30.23 in 10.0 mi Calm Calm - N/A   Overcast
7:35 AM 33.8 °F - 24.8 °F 70% 30.23 in 10.0 mi Calm Calm - N/A   Mostly Cloudy
7:55 AM 35.6 °F 32.8 °F 24.8 °F 65% 30.23 in 10.0 mi NE 3.5 mph - N/A   Overcast
8:15 AM 35.6 °F 31.7 °F 23.0 °F 60% 30.23 in 10.0 mi NE 4.6 mph - N/A   Overcast
8:35 AM 37.4 °F - 24.8 °F 60% 30.23 in 10.0 mi Calm Calm - N/A   Mostly Cloudy
8:55 AM 37.4 °F - 24.8 °F 60% 30.22 in 10.0 mi Calm Calm - N/A   Mostly Cloudy
9:15 AM 39.2 °F 35.9 °F 26.6 °F 61% 30.21 in 10.0 mi ENE 4.6 mph - N/A   Mostly Cloudy
9:35 AM 39.2 °F 37.0 °F 26.6 °F 61% 30.20 in 10.0 mi East 3.5 mph - N/A   Overcast
9:55 AM 42.8 °F 40.1 °F 26.6 °F 53% 30.19 in 10.0 mi NNE 4.6 mph - N/A   Overcast
10:15 AM 44.6 °F 40.7 °F 26.6 °F 49% 30.18 in 10.0 mi NNE 6.9 mph - N/A   Scattered Clouds
10:35 AM 46.4 °F 42.9 °F 28.4 °F 50% 30.17 in 10.0 mi ENE 6.9 mph - N/A   Mostly Cloudy
10:55 AM 46.4 °F 41.5 °F 28.4 °F 50% 30.16 in 10.0 mi ENE 10.4 mph - N/A   Mostly Cloudy
11:15 AM 48.2 °F - 30.2 °F 50% 30.16 in 10.0 mi NE 8.1 mph - N/A   Partly Cloudy
11:35 AM 48.2 °F - 30.2 °F 50% 30.15 in 10.0 mi NE 5.8 mph - N/A   Mostly Cloudy
11:55 AM 51.8 °F - 32.0 °F 47% 30.13 in 10.0 mi North 3.5 mph - N/A   Mostly Cloudy
12:15 PM 51.8 °F - 33.8 °F 50% 30.12 in 10.0 mi NNE 5.8 mph - N/A   Mostly Cloudy
12:35 PM 51.8 °F - 33.8 °F 50% 30.10 in 10.0 mi North - - N/A   Overcast
12:55 PM 51.8 °F - 33.8 °F 50% 30.09 in 10.0 mi Calm Calm - N/A   Overcast
1:15 PM 53.6 °F - 33.8 °F 47% 30.08 in 10.0 mi Calm Calm - N/A   Overcast
1:35 PM 53.6 °F - 33.8 °F 47% 30.07 in 10.0 mi Calm Calm - N/A   Overcast
1:55 PM 51.8 °F - 35.6 °F 54% 30.06 in 10.0 mi SW 6.9 mph - N/A   Overcast
2:15 PM 51.8 °F - 35.6 °F 54% 30.05 in 10.0 mi WSW 6.9 mph - N/A   Overcast
2:35 PM 48.2 °F - 37.4 °F 66% 30.05 in 10.0 mi WSW 5.8 mph - N/A   Overcast
2:55 PM 48.2 °F - 39.2 °F 71% 30.05 in 10.0 mi West 5.8 mph - N/A   Overcast
3:15 PM 48.2 °F - 39.2 °F 71% 30.05 in 10.0 mi WSW 5.8 mph - N/A   Overcast
3:55 PM 48.2 °F - 39.2 °F 71% 30.04 in 10.0 mi WSW 6.9 mph - N/A   Overcast
4:35 PM 46.4 °F 40.7 °F 37.4 °F 71% 30.05 in 10.0 mi SW 12.7 mph - N/A   Overcast
4:55 PM 44.6 °F 39.7 °F 37.4 °F 76% 30.05 in 10.0 mi SW 9.2 mph - N/A   Overcast
5:15 PM 42.8 °F 37.0 °F 37.4 °F 81% 30.06 in 10.0 mi SW 10.4 mph 16.1 mph N/A   Overcast
5:35 PM 42.8 °F 37.5 °F 35.6 °F 76% 30.07 in 10.0 mi SW 9.2 mph - N/A   Mostly Cloudy
5:55 PM 42.8 °F 37.0 °F 35.6 °F 76% 30.06 in 10.0 mi SW 10.4 mph - N/A   Overcast
6:15 PM 41.0 °F 34.7 °F 35.6 °F 81% 30.07 in 10.0 mi SW 10.4 mph 18.4 mph N/A   Overcast
6:35 PM 39.2 °F 32.0 °F 33.8 °F 81% 30.07 in 10.0 mi SSW 11.5 mph 16.1 mph N/A   Overcast
6:55 PM 39.2 °F 33.0 °F 33.8 °F 81% 30.07 in 10.0 mi SSW 9.2 mph - N/A   Overcast
7:15 PM 39.2 °F 32.0 °F 33.8 °F 81% 30.08 in 10.0 mi South 11.5 mph - 0.04 in   Mostly Cloudy
7:35 PM 39.2 °F 34.2 °F 33.8 °F 81% 30.08 in 10.0 mi SSW 6.9 mph - 0.12 in   Overcast
7:55 PM 39.2 °F 37.0 °F 33.8 °F 81% 30.08 in 10.0 mi SSW 3.5 mph - 0.19 in   Overcast
8:15 PM 39.2 °F 35.0 °F 33.8 °F 81% 30.09 in 10.0 mi SSW 5.8 mph - 0.02 in   Overcast
8:35 PM 39.2 °F - 35.6 °F 87% 30.08 in 10.0 mi Calm Calm - 0.02 in   Mostly Cloudy
8:55 PM 39.2 °F - 33.8 °F 81% 30.08 in 10.0 mi Calm Calm - 0.03 in   Overcast
9:15 PM 39.2 °F - 33.8 °F 81% 30.08 in 10.0 mi Calm Calm - N/A   Overcast
9:35 PM 39.2 °F - 35.6 °F 87% 30.08 in 10.0 mi Calm Calm - 0.01 in   Overcast
9:55 PM 39.2 °F - 33.8 °F 81% 30.08 in 10.0 mi Calm Calm - 0.02 in   Overcast
10:35 PM 39.2 °F - 35.6 °F 87% 30.08 in 10.0 mi Calm Calm - 0.01 in   Overcast
10:55 PM 39.2 °F - 35.6 °F 87% 30.08 in 10.0 mi Calm Calm - 0.01 in   Overcast
11:15 PM 39.2 °F 37.0 °F 35.6 °F 87% 30.07 in 10.0 mi East 3.5 mph - N/A   Overcast
11:35 PM 39.2 °F - 35.6 °F 87% 30.07 in 10.0 mi Calm Calm - N/A   Overcast
11:55 PM 39.2 °F - 35.6 °F 87% 30.06 in 10.0 mi Calm Calm - N/A   Overcast